Showing default

HYPSO-1, 51053

Orbit data source: Space-Track

HYPSO-1, 51053 is a payload satellite owned by NTNU (NO) in SSO that was launched on Thu, 13 Jan 2022 UTC via an FALCON 9 launch vehicle from the Air Force Eastern Test Range (AFETR). Payload-class satellites include a variety of spacecraft equipped with specific instruments for various scientific and technological missions. These include communications satellites like Starlink; space stations such as the ISS; scientific satellites like the Hubble; Earth observation satellites from companies like Planet Labs, Umbra, and HawkEye 360; GPS; miniature CubeSats for education and research; and military/defense satellites.

Loading next visibility...
Identifier
51053, 2022-002BX
Orbit
SSO
Country
Flag of NONO / NOR
Related business
Manufacturer
NanoAvionics
Mission
Operational Amateur Imaging
Bus & Motor
CUBESAT 6U, Unknown motor
Mass
~10 kg wet, ~10 kg dry
Launch date (UTC)
2022-01-13 (4 years ago)
Launch vehicle
FALCON 9
Launch site
Air Force Eastern Test Range (AFETR)
Object type
Payload
Rocket body
Debris
Shape & HBR
Box + 2 Pan, 0.1 m
Radar Cross Section
0.080 m², Medium (>0.1 m² and < 1m²)

Expand to show TLE details & history
Last TLE update: 5 days ago

TLE from 5 days ago
0 HYPSO-1
1 51053U 22002BX  26155.25880946  .00072419  00000-0  61298-3 0  9993
2 51053  97.2834 235.6904 0000952 305.1695  54.9478 15.69497105244883
Epoch: 2026-06-04T06:12Z
TLE epoch observation values (Epoch: 2026-06-04T06:12:41.137Z)
Latitude
-0°
Longitude
-110.18665°
Altitude
363.128 km
Speed
7.692 km/s
True Right ascension
15h 42m 45s
True Declination
0° 00' 00"
Sunlit
Object was in full shadow at epoch
Visualization orbit readout
Latitude
Unknown
Longitude
Unknown
Altitude
Unknown
Speed
Unknown
Apparent Right ascension
Unknown
Apparent Declination
Unknown
Sunlit
N/A
Visualization observer readout
Local Sidereal Time
16:12:36
Azimuth
Unknown
Elevation
Unknown
Doppler factor
Unknown
Orbital elements
Apogee altitude
357.872 km
Perigee altitude
356.59 km
Semi-major axis
6,735.368 km
Eccentricity
0.0001
Inclination
97.2834°
RAAN
235.6904°
Arg. of periapsis
305.1695°
True anomaly
54.95673°
Mean anomaly
54.9478°
Eccentric anomaly
54.95227°
Mean motion
3.92646 °/min
Orbital period
91.69 mins
BSTAR
0.00061298
Loading maneuver chart data...
Computing Atmospheric mass density...

Documentation

Showing up to 5 results
|